THY6GT LTAJ-LTFM

Flight info

Callsign THY6GT
Flight time 1h 26m
Altitude 38000
Route POGEN UL605 BELSU UA17 BALAX UL605 YAVRU UA4 ERSEN
Aircraft A21N/M-SDE2E3FGHIRWXY/LB1

Departure

Time 2026-04-24 19:00
Airport Gaziantep Oğuzeli International Airport (LTAJ)

Arrival

Time 2026-04-24 20:27
Airport İstanbul Airport (LTFM)
Time Latitude Longitude Altitude Speed Heading
2026-04-24 18:54 36.94712 37.47529 2320 ft 10 kts 104°
2026-04-24 18:55 36.94669 37.47731 2320 ft 13 kts 105°
2026-04-24 18:55 36.94642 37.47850 2320 ft 14 kts 105°
2026-04-24 18:55 36.94614 37.47980 2320 ft 16 kts 104°
2026-04-24 18:56 36.94585 37.48120 2320 ft 17 kts 104°
2026-04-24 18:56 36.94553 37.48268 2320 ft 17 kts 105°
2026-04-24 18:56 36.94520 37.48421 2319 ft 18 kts 104°
2026-04-24 18:56 36.94487 37.48577 2319 ft 18 kts 104°
2026-04-24 18:57 36.94453 37.48731 2319 ft 18 kts 105°
2026-04-24 18:57 36.94420 37.48884 2319 ft 17 kts 104°
2026-04-24 18:57 36.94389 37.49033 2319 ft 17 kts 104°
2026-04-24 18:57 36.94357 37.49180 2319 ft 17 kts 105°
2026-04-24 18:58 36.94326 37.49321 2319 ft 11 kts 105°
2026-04-24 18:58 36.94345 37.49406 2319 ft 11 kts 26°
2026-04-24 18:58 36.94424 37.49434 2319 ft 11 kts 13°
2026-04-24 18:58 36.94481 37.49381 2319 ft 11 kts 280°
2026-04-24 18:59 36.94488 37.49334 2319 ft 0 kts 285°
2026-04-24 18:59 36.94491 37.49322 2319 ft 11 kts 285°
2026-04-24 18:59 36.94583 37.48895 2319 ft 86 kts 284°
2026-04-24 18:59 36.94796 37.47900 2320 ft 147 kts 285°
2026-04-24 19:00 36.95096 37.46506 2529 ft 175 kts 284°
2026-04-24 19:00 36.95383 37.45064 3286 ft 170 kts 282°
2026-04-24 19:00 36.95632 37.43623 3970 ft 172 kts 282°
2026-04-24 19:00 36.95889 37.42148 4436 ft 180 kts 282°
2026-04-24 19:01 36.96175 37.40564 4747 ft 195 kts 282°
2026-04-24 19:01 36.96492 37.38847 5065 ft 211 kts 282°
2026-04-24 19:01 36.96846 37.36961 5318 ft 233 kts 282°
2026-04-24 19:01 36.97234 37.34903 5703 ft 251 kts 282°
2026-04-24 19:02 36.97510 37.33448 6031 ft 260 kts 282°
2026-04-24 19:02 36.98060 37.30495 7023 ft 264 kts 282°
2026-04-24 19:02 36.98472 37.28252 7821 ft 266 kts 281°
2026-04-24 19:02 36.98881 37.26017 8487 ft 268 kts 281°
2026-04-24 19:03 36.99293 37.23761 8878 ft 268 kts 281°
2026-04-24 19:03 36.99707 37.21482 8981 ft 268 kts 281°
2026-04-24 19:03 37.00220 37.19227 8980 ft 270 kts 291°
2026-04-24 19:03 37.01221 37.17219 9030 ft 278 kts 307°
2026-04-24 19:04 37.02608 37.15467 9590 ft 285 kts 312°
2026-04-24 19:04 37.04029 37.13767 10466 ft 283 kts 312°
2026-04-24 19:04 37.05480 37.12022 10930 ft 296 kts 311°
2026-04-24 19:04 37.07018 37.10161 11259 ft 313 kts 312°
2026-04-24 19:05 37.08625 37.08216 11791 ft 322 kts 312°
2026-04-24 19:05 37.10247 37.06265 12499 ft 325 kts 312°
2026-04-24 19:05 37.11952 37.04388 13202 ft 328 kts 315°
2026-04-24 19:05 37.13781 37.02630 13867 ft 332 kts 318°
2026-04-24 19:06 37.15661 37.00918 14507 ft 336 kts 319°
2026-04-24 19:06 37.17576 36.99186 15134 ft 339 kts 319°
2026-04-24 19:06 37.19509 36.97438 15759 ft 341 kts 319°
2026-04-24 19:06 37.21459 36.95673 16361 ft 344 kts 319°
2026-04-24 19:07 37.23420 36.93897 16964 ft 346 kts 318°
2026-04-24 19:07 37.25386 36.92112 17540 ft 349 kts 318°
2026-04-24 19:07 37.26707 36.90912 17915 ft 351 kts 318°
2026-04-24 19:07 37.29357 36.88504 18626 ft 355 kts 318°
2026-04-24 19:08 37.31374 36.86668 19169 ft 357 kts 318°
2026-04-24 19:08 37.33395 36.84831 19715 ft 359 kts 318°
2026-04-24 19:08 37.35434 36.82973 20245 ft 361 kts 318°
2026-04-24 19:08 37.37509 36.81081 20778 ft 363 kts 318°
2026-04-24 19:09 37.39573 36.79197 21284 ft 365 kts 318°
2026-04-24 19:09 37.41640 36.77309 21773 ft 367 kts 317°
2026-04-24 19:09 37.43714 36.75413 22252 ft 369 kts 317°
2026-04-24 19:09 37.45817 36.73490 22749 ft 371 kts 317°
2026-04-24 19:10 37.47903 36.71566 23204 ft 372 kts 316°
2026-04-24 19:10 37.49881 36.69521 23661 ft 370 kts 312°
2026-04-24 19:10 37.51755 36.67282 24092 ft 369 kts 308°
2026-04-24 19:10 37.53517 36.64887 24520 ft 370 kts 306°
2026-04-24 19:11 37.55230 36.62478 24900 ft 372 kts 306°
2026-04-24 19:11 37.56967 36.60020 25286 ft 374 kts 305°
2026-04-24 19:11 37.58705 36.57565 25659 ft 376 kts 305°
2026-04-24 19:11 37.60477 36.55057 26031 ft 378 kts 305°
2026-04-24 19:12 37.62235 36.52571 26384 ft 381 kts 305°
2026-04-24 19:12 37.64000 36.50073 26721 ft 383 kts 305°
2026-04-24 19:12 37.65773 36.47566 27066 ft 385 kts 305°
2026-04-24 19:12 37.67580 36.45009 27405 ft 387 kts 305°
2026-04-24 19:13 37.68779 36.43312 27618 ft 388 kts 305°
2026-04-24 19:13 37.71183 36.39899 28088 ft 390 kts 305°
2026-04-24 19:13 37.73003 36.37316 28412 ft 392 kts 305°
2026-04-24 19:13 37.74820 36.34734 28724 ft 394 kts 304°
2026-04-24 19:14 37.76643 36.32142 29090 ft 394 kts 304°
2026-04-24 19:14 37.78475 36.29537 29407 ft 396 kts 304°
2026-04-24 19:14 37.80310 36.26920 29708 ft 399 kts 304°
2026-04-24 19:14 37.82140 36.24309 30038 ft 400 kts 304°
2026-04-24 19:15 37.83988 36.21674 30357 ft 401 kts 304°
2026-04-24 19:15 37.85861 36.19011 30669 ft 403 kts 304°
2026-04-24 19:15 37.87737 36.16345 30953 ft 405 kts 304°
2026-04-24 19:15 37.89613 36.13676 31227 ft 407 kts 304°
2026-04-24 19:16 37.93399 36.08277 31876 ft 408 kts 304°
2026-04-24 19:16 37.95275 36.05603 32262 ft 406 kts 304°
2026-04-24 19:16 37.97139 36.02940 32629 ft 405 kts 304°
2026-04-24 19:17 37.99010 36.00263 32989 ft 404 kts 304°
2026-04-24 19:17 38.00882 35.97581 33313 ft 404 kts 303°
2026-04-24 19:17 38.02757 35.94892 33628 ft 404 kts 304°
2026-04-24 19:17 38.04625 35.92211 33965 ft 404 kts 303°
2026-04-24 19:18 38.06480 35.89548 34294 ft 403 kts 303°
2026-04-24 19:18 38.08344 35.86865 34622 ft 402 kts 303°
2026-04-24 19:18 38.10202 35.84191 34946 ft 401 kts 303°
2026-04-24 19:18 38.12039 35.81544 35213 ft 400 kts 303°
2026-04-24 19:19 38.13891 35.78876 35470 ft 400 kts 303°
2026-04-24 19:19 38.15711 35.76253 35721 ft 400 kts 303°
2026-04-24 19:19 38.17558 35.73596 35958 ft 400 kts 303°
2026-04-24 19:19 38.19391 35.70949 36177 ft 399 kts 303°
2026-04-24 19:20 38.21236 35.68286 36465 ft 399 kts 303°
2026-04-24 19:20 38.23082 35.65615 36680 ft 399 kts 303°
2026-04-24 19:20 38.24910 35.62970 36871 ft 401 kts 303°
2026-04-24 19:20 38.26756 35.60296 37064 ft 402 kts 303°
2026-04-24 19:21 38.28596 35.57627 37228 ft 403 kts 303°
2026-04-24 19:21 38.30451 35.54932 37393 ft 404 kts 303°
2026-04-24 19:21 38.32315 35.52227 37584 ft 405 kts 303°
2026-04-24 19:21 38.34177 35.49520 37779 ft 405 kts 303°
2026-04-24 19:22 38.35412 35.47723 37900 ft 405 kts 304°
2026-04-24 19:22 38.37896 35.44107 38008 ft 406 kts 303°
2026-04-24 19:22 38.41605 35.38699 38025 ft 408 kts 303°
2026-04-24 19:23 38.45357 35.33218 38023 ft 408 kts 303°
2026-04-24 19:23 38.49095 35.27742 38032 ft 407 kts 303°
2026-04-24 19:24 38.52807 35.22298 38030 ft 406 kts 303°
2026-04-24 19:24 38.56454 35.16817 38036 ft 405 kts 302°
2026-04-24 19:25 38.60116 35.11276 38032 ft 405 kts 302°
2026-04-24 19:25 38.63748 35.05775 38028 ft 406 kts 302°
2026-04-24 19:26 38.67400 35.00235 38029 ft 405 kts 302°
2026-04-24 19:26 38.71039 34.94709 38028 ft 405 kts 302°
2026-04-24 19:27 38.74665 34.89190 38020 ft 405 kts 303°
2026-04-24 19:27 38.78302 34.83646 38024 ft 406 kts 303°
2026-04-24 19:28 38.81936 34.78101 38016 ft 405 kts 303°
2026-04-24 19:28 38.85551 34.72568 38015 ft 405 kts 303°
2026-04-24 19:29 38.90995 34.64223 38010 ft 405 kts 303°
2026-04-24 19:30 38.94608 34.58678 38013 ft 404 kts 303°
2026-04-24 19:30 38.98202 34.53144 38006 ft 405 kts 303°
2026-04-24 19:31 39.01819 34.47565 38004 ft 405 kts 303°
2026-04-24 19:31 39.05427 34.41986 38004 ft 406 kts 303°
2026-04-24 19:32 39.09036 34.36347 38006 ft 406 kts 301°
2026-04-24 19:32 39.12323 34.30496 38003 ft 403 kts 298°
2026-04-24 19:33 39.15638 34.24653 38003 ft 406 kts 302°
2026-04-24 19:33 39.19263 34.19037 37992 ft 407 kts 303°
2026-04-24 19:34 39.22929 34.13411 37996 ft 408 kts 304°
2026-04-24 19:34 39.26568 34.07815 38009 ft 407 kts 303°
2026-04-24 19:35 39.30227 34.02174 38002 ft 407 kts 303°
2026-04-24 19:35 39.33855 33.96567 38002 ft 407 kts 304°
2026-04-24 19:36 39.37493 33.90933 37997 ft 408 kts 304°
2026-04-24 19:36 39.41125 33.85302 38004 ft 409 kts 304°
2026-04-24 19:37 39.44764 33.79645 38000 ft 410 kts 305°
2026-04-24 19:37 39.48366 33.73946 38000 ft 410 kts 304°
2026-04-24 19:38 39.51917 33.68210 38003 ft 409 kts 304°
2026-04-24 19:38 39.55473 33.62469 38003 ft 410 kts 304°
2026-04-24 19:39 39.59074 33.56681 38007 ft 411 kts 305°
2026-04-24 19:39 39.62717 33.51001 38004 ft 411 kts 306°
2026-04-24 19:40 39.66388 33.45280 38005 ft 412 kts 306°
2026-04-24 19:40 39.70050 33.39547 38008 ft 413 kts 306°
2026-04-24 19:41 39.73716 33.33793 38013 ft 414 kts 305°
2026-04-24 19:41 39.77404 33.27991 38010 ft 414 kts 305°
2026-04-24 19:42 39.81056 33.22233 38008 ft 414 kts 306°
2026-04-24 19:42 39.84721 33.16444 38026 ft 415 kts 306°
2026-04-24 19:43 39.88414 33.10606 38014 ft 415 kts 306°
2026-04-24 19:43 39.92067 33.04810 38019 ft 416 kts 306°
2026-04-24 19:44 39.95734 32.98988 38013 ft 416 kts 306°
2026-04-24 19:44 39.99422 32.93116 38016 ft 417 kts 306°
2026-04-24 19:45 40.03113 32.87230 38018 ft 418 kts 306°
2026-04-24 19:45 40.06764 32.81335 38021 ft 417 kts 305°
2026-04-24 19:46 40.10109 32.75209 38018 ft 416 kts 302°
2026-04-24 19:46 40.13415 32.68986 38024 ft 416 kts 302°
2026-04-24 19:47 40.16715 32.62758 38027 ft 417 kts 303°
2026-04-24 19:47 40.20006 32.56540 38027 ft 417 kts 303°
2026-04-24 19:48 40.23314 32.50279 38025 ft 417 kts 303°
2026-04-24 19:48 40.28262 32.40884 38027 ft 417 kts 303°
2026-04-24 19:49 40.34845 32.28342 38028 ft 418 kts 303°
2026-04-24 19:50 40.41434 32.15736 38030 ft 418 kts 303°
2026-04-24 19:51 40.46348 32.06290 38025 ft 418 kts 303°
2026-04-24 19:52 40.51268 31.96784 38021 ft 417 kts 303°
2026-04-24 19:52 40.54521 31.90457 38026 ft 418 kts 302°
2026-04-24 19:53 40.57412 31.83859 38036 ft 419 kts 296°
2026-04-24 19:54 40.60715 31.73243 38037 ft 419 kts 288°
2026-04-24 19:54 40.62517 31.65989 38046 ft 420 kts 288°
2026-04-24 19:55 40.64015 31.59907 38045 ft 419 kts 288°
2026-04-24 19:55 40.66111 31.51378 38044 ft 420 kts 289°
2026-04-24 19:56 40.67914 31.44038 38043 ft 421 kts 289°
2026-04-24 19:56 40.69708 31.36704 38047 ft 420 kts 289°
2026-04-24 19:57 40.71498 31.29358 37887 ft 422 kts 288°
2026-04-24 19:57 40.72392 31.25678 37641 ft 420 kts 288°
2026-04-24 19:57 40.73278 31.22025 37387 ft 418 kts 288°
2026-04-24 19:57 40.74163 31.18369 37129 ft 415 kts 289°
2026-04-24 19:58 40.75028 31.14795 36875 ft 414 kts 289°
2026-04-24 19:58 40.75908 31.11155 36599 ft 414 kts 289°
2026-04-24 19:58 40.76785 31.07521 36351 ft 416 kts 289°
2026-04-24 19:58 40.77651 31.03927 36131 ft 417 kts 289°
2026-04-24 19:59 40.78531 31.00268 35907 ft 418 kts 289°
2026-04-24 19:59 40.79407 30.96615 35684 ft 420 kts 290°
2026-04-24 19:59 40.80300 30.92898 35453 ft 421 kts 290°
2026-04-24 19:59 40.81176 30.89241 35224 ft 423 kts 290°
2026-04-24 20:00 40.82064 30.85528 34999 ft 424 kts 290°
2026-04-24 20:00 40.82949 30.81812 34774 ft 426 kts 290°
2026-04-24 20:00 40.83835 30.78095 34536 ft 428 kts 290°
2026-04-24 20:00 40.84735 30.74309 34272 ft 429 kts 290°
2026-04-24 20:01 40.85616 30.70595 34013 ft 431 kts 290°
2026-04-24 20:01 40.86453 30.66762 33746 ft 433 kts 288°
2026-04-24 20:01 40.87121 30.62920 33459 ft 436 kts 285°
2026-04-24 20:01 40.87720 30.58977 33017 ft 438 kts 285°
2026-04-24 20:02 40.88107 30.56374 32637 ft 439 kts 285°
2026-04-24 20:02 40.88893 30.51062 31668 ft 441 kts 285°
2026-04-24 20:02 40.89477 30.47116 30972 ft 441 kts 285°
2026-04-24 20:02 40.89990 30.43114 30496 ft 438 kts 283°
2026-04-24 20:03 40.90326 30.39160 30019 ft 436 kts 280°
2026-04-24 20:03 40.90583 30.35198 29536 ft 432 kts 279°
2026-04-24 20:03 40.90823 30.31281 29059 ft 428 kts 278°
2026-04-24 20:03 40.91062 30.27331 28577 ft 424 kts 278°
2026-04-24 20:04 40.91295 30.23519 28110 ft 421 kts 278°
2026-04-24 20:04 40.91530 30.19663 27806 ft 417 kts 278°
2026-04-24 20:04 40.91764 30.15822 27524 ft 420 kts 278°
2026-04-24 20:04 40.91998 30.11970 27018 ft 417 kts 278°
2026-04-24 20:05 40.92226 30.08171 26544 ft 413 kts 278°
2026-04-24 20:05 40.92773 30.04531 25991 ft 402 kts 295°
2026-04-24 20:05 40.94245 30.01473 25444 ft 390 kts 313°
2026-04-24 20:05 40.96033 29.98775 24962 ft 385 kts 313°
2026-04-24 20:06 40.97775 29.96078 24423 ft 383 kts 312°
2026-04-24 20:06 40.99473 29.93383 23914 ft 380 kts 311°
2026-04-24 20:06 41.01131 29.90710 23400 ft 376 kts 311°
2026-04-24 20:06 41.02767 29.88039 22891 ft 373 kts 310°
2026-04-24 20:07 41.03857 29.86249 22535 ft 372 kts 310°
2026-04-24 20:07 41.06014 29.82689 21842 ft 369 kts 310°
2026-04-24 20:07 41.07600 29.80059 21336 ft 366 kts 310°
2026-04-24 20:07 41.09188 29.77422 20836 ft 363 kts 310°
2026-04-24 20:08 41.10733 29.74854 20349 ft 360 kts 310°
2026-04-24 20:08 41.12295 29.72252 19872 ft 357 kts 310°
2026-04-24 20:08 41.13829 29.69696 19383 ft 354 kts 310°
2026-04-24 20:08 41.15370 29.67123 18904 ft 351 kts 310°
2026-04-24 20:09 41.16881 29.64598 18418 ft 349 kts 310°
2026-04-24 20:09 41.18386 29.62080 17943 ft 346 kts 310°
2026-04-24 20:09 41.19873 29.59590 17473 ft 344 kts 310°
2026-04-24 20:09 41.21350 29.57114 17007 ft 342 kts 310°
2026-04-24 20:10 41.22812 29.54662 16554 ft 340 kts 310°
2026-04-24 20:10 41.24281 29.52197 16071 ft 337 kts 310°
2026-04-24 20:10 41.25728 29.49765 15601 ft 335 kts 310°
2026-04-24 20:10 41.27169 29.47343 15122 ft 333 kts 310°
2026-04-24 20:11 41.28588 29.44956 14653 ft 331 kts 310°
2026-04-24 20:11 41.30020 29.42546 14196 ft 328 kts 310°
2026-04-24 20:11 41.31411 29.40202 13738 ft 326 kts 310°
2026-04-24 20:11 41.32820 29.37827 13278 ft 323 kts 310°
2026-04-24 20:12 41.34207 29.35488 12804 ft 322 kts 310°
2026-04-24 20:12 41.35587 29.33156 12343 ft 320 kts 309°
2026-04-24 20:12 41.36947 29.30859 11995 ft 314 kts 309°
2026-04-24 20:12 41.38297 29.28576 11687 ft 307 kts 309°
2026-04-24 20:13 41.39592 29.26384 11347 ft 302 kts 309°
2026-04-24 20:13 41.40880 29.24202 11005 ft 297 kts 309°
2026-04-24 20:13 41.42152 29.22047 10665 ft 293 kts 309°
2026-04-24 20:13 41.43405 29.19921 10348 ft 288 kts 309°
2026-04-24 20:14 41.44644 29.17816 10017 ft 284 kts 309°
2026-04-24 20:14 41.45845 29.15776 9702 ft 279 kts 310°
2026-04-24 20:14 41.47046 29.13730 9385 ft 275 kts 310°
2026-04-24 20:14 41.48220 29.11734 9013 ft 273 kts 310°
2026-04-24 20:15 41.49392 29.09741 8600 ft 273 kts 310°
2026-04-24 20:15 41.50559 29.07756 8214 ft 271 kts 310°
2026-04-24 20:15 41.51722 29.05775 7826 ft 270 kts 310°
2026-04-24 20:15 41.52868 29.03819 7442 ft 269 kts 310°
2026-04-24 20:16 41.54020 29.01853 7066 ft 267 kts 310°
2026-04-24 20:16 41.55173 28.99884 6690 ft 265 kts 310°
2026-04-24 20:16 41.56300 28.97957 6330 ft 258 kts 310°
2026-04-24 20:16 41.57396 28.96078 5872 ft 250 kts 309°
2026-04-24 20:17 41.58358 28.94186 5438 ft 242 kts 303°
2026-04-24 20:17 41.59971 28.90415 4631 ft 227 kts 301°
2026-04-24 20:17 41.60735 28.88603 4330 ft 221 kts 301°
2026-04-24 20:18 41.61234 28.87423 4226 ft 223 kts 301°
2026-04-24 20:18 41.62263 28.84990 3951 ft 227 kts 301°
2026-04-24 20:18 41.63042 28.83146 3983 ft 229 kts 301°
2026-04-24 20:18 41.63791 28.81276 4029 ft 227 kts 294°
2026-04-24 20:19 41.63904 28.79157 4061 ft 230 kts 257°
2026-04-24 20:19 41.63051 28.77365 4028 ft 232 kts 222°
2026-04-24 20:19 41.61650 28.76250 4038 ft 233 kts 208°
2026-04-24 20:19 41.60190 28.75288 4014 ft 231 kts 202°
2026-04-24 20:20 41.58612 28.74943 4004 ft 228 kts 181°
2026-04-24 20:20 41.57025 28.74972 4009 ft 228 kts 178°
2026-04-24 20:20 41.55428 28.75048 4006 ft 228 kts 178°
2026-04-24 20:20 41.53843 28.75115 4005 ft 228 kts 178°
2026-04-24 20:21 41.52245 28.75166 3991 ft 219 kts 179°
2026-04-24 20:21 41.50731 28.75203 3990 ft 213 kts 179°
2026-04-24 20:21 41.49279 28.75233 3978 ft 198 kts 179°
2026-04-24 20:21 41.47975 28.75260 3956 ft 177 kts 179°
2026-04-24 20:22 41.46801 28.75283 3950 ft 163 kts 179°
2026-04-24 20:22 41.45663 28.75305 4006 ft 163 kts 179°
2026-04-24 20:22 41.44502 28.75328 4000 ft 163 kts 179°
2026-04-24 20:22 41.43353 28.75351 4001 ft 162 kts 179°
2026-04-24 20:23 41.42210 28.75374 4001 ft 162 kts 179°
2026-04-24 20:23 41.41092 28.75395 3879 ft 154 kts 179°
2026-04-24 20:23 41.40025 28.75429 3445 ft 155 kts 178°
2026-04-24 20:23 41.38936 28.75483 2974 ft 156 kts 177°
2026-04-24 20:24 41.38218 28.75526 2673 ft 156 kts 177°
2026-04-24 20:24 41.36787 28.75560 2113 ft 150 kts 181°
2026-04-24 20:24 41.35788 28.75523 2065 ft 137 kts 181°
2026-04-24 20:24 41.34828 28.75509 1877 ft 137 kts 180°
2026-04-24 20:25 41.33862 28.75572 1492 ft 140 kts 179°
2026-04-24 20:25 41.32894 28.75581 1108 ft 135 kts 181°
2026-04-24 20:25 41.31979 28.75570 829 ft 124 kts 180°
2026-04-24 20:25 41.31084 28.75601 720 ft 137 kts 179°
2026-04-24 20:26 41.30081 28.75634 675 ft 144 kts 180°
2026-04-24 20:26 41.29095 28.75630 408 ft 131 kts 180°
2026-04-24 20:26 41.28258 28.75637 334 ft 104 kts 179°
2026-04-24 20:26 41.27701 28.75647 334 ft 54 kts 178°
2026-04-24 20:27 41.27477 28.75650 334 ft 22 kts 180°
2026-04-24 20:27 41.27341 28.75649 334 ft 17 kts 181°
2026-04-24 20:27 41.27198 28.75633 334 ft 21 kts 194°
2026-04-24 20:27 41.27058 28.75555 334 ft 22 kts 208°
2026-04-24 20:28 41.26980 28.75499 334 ft 11 kts 210°
2026-04-24 20:28 41.26910 28.75446 334 ft 11 kts 210°
2026-04-24 20:28 41.26835 28.75396 334 ft 12 kts 198°
2026-04-24 20:28 41.26749 28.75378 334 ft 12 kts 184°
2026-04-24 20:29 41.26687 28.75375 334 ft 13 kts 181°
2026-04-24 20:29 41.26563 28.75378 334 ft 13 kts 178°
2026-04-24 20:29 41.26466 28.75380 334 ft 13 kts 179°
2026-04-24 20:29 41.26368 28.75382 334 ft 14 kts 180°
2026-04-24 20:30 41.26268 28.75384 334 ft 14 kts 179°
2026-04-24 20:30 41.26165 28.75386 334 ft 14 kts 179°
2026-04-24 20:30 41.26062 28.75389 334 ft 14 kts 179°
2026-04-24 20:30 41.25965 28.75390 334 ft 13 kts 179°
2026-04-24 20:31 41.25868 28.75392 334 ft 14 kts 179°
2026-04-24 20:31 41.25771 28.75393 334 ft 12 kts 179°
2026-04-24 20:31 41.25693 28.75395 334 ft 10 kts 180°
2026-04-24 20:31 41.25637 28.75342 334 ft 10 kts 258°
2026-04-24 20:32 41.25634 28.75237 334 ft 11 kts 269°
2026-04-24 20:32 41.25633 28.75128 334 ft 11 kts 269°
2026-04-24 20:32 41.25631 28.75030 334 ft 9 kts 269°
2026-04-24 20:32 41.25638 28.74944 334 ft 7 kts 294°
2026-04-24 20:33 41.25682 28.74926 334 ft 7 kts
2026-04-24 20:33 41.25710 28.74926 334 ft 2 kts 359°
2026-04-24 20:33 41.25718 28.74926 334 ft 0 kts 359°